Location: Pinhey's Point
(45.4411°N, 75.9539°W)
Time: 04:56:18
(UTC-04:00)

Iridium 65 - Visible Passes

Search period start: 29 August 2016 00:00
Search period end: 08 September 2016 00:00
Orbit: 776 x 779 km, 86.4° (Epoch: 28 August)

Date Brightness Start Highest point End Pass type
(mag) Time Alt. Az. Time Alt. Az. Time Alt. Az.
29 Aug 7.8 00:36:38 16° NE 00:36:38 16° NE 00:38:26 10° NNE visible
29 Aug 6.9 02:17:06 34° NNW 02:17:06 34° NNW 02:20:10 10° N visible
30 Aug 7.0 01:43:47 34° N 01:43:47 34° N 01:46:42 10° N visible
30 Aug 7.8 03:24:16 12° NW 03:24:16 12° NW 03:25:22 10° NW visible
31 Aug 7.3 01:10:27 27° NNE 01:10:27 27° NNE 01:13:00 10° NNE visible
31 Aug 7.5 02:50:56 19° NW 02:50:56 19° NW 02:53:06 10° NNW visible
01 Sep 7.7 00:37:07 19° NE 00:37:07 19° NE 00:39:02 10° NNE visible
01 Sep 7.3 02:17:36 25° NNW 02:17:36 25° NNW 02:20:06 10° N visible
02 Sep 8.1 00:03:47 12° NE 00:03:47 12° NE 00:04:31 10° NE visible
02 Sep 7.2 01:44:16 29° N 01:44:16 29° N 01:46:47 10° N visible
03 Sep 7.4 01:10:55 27° NNE 01:10:55 27° NNE 01:13:14 10° N visible
03 Sep 7.9 02:51:23 13° NW 02:51:23 13° NW 02:52:35 10° NNW visible
04 Sep 7.7 00:37:34 21° NNE 00:37:34 21° NNE 00:39:26 10° NNE visible
04 Sep 7.7 02:18:02 19° NNW 02:18:02 19° NNW 02:19:55 10° NNW visible
05 Sep 8.0 00:04:13 14° NE 00:04:13 14° NE 00:05:17 10° NNE visible
05 Sep 7.5 01:44:41 23° NNW 01:44:41 23° NNW 01:46:46 10° N visible
06 Sep 7.6 01:11:20 24° N 01:11:20 24° N 01:13:21 10° N visible
07 Sep 7.7 00:37:58 21° NNE 00:37:58 21° NNE 00:39:42 10° NNE visible
07 Sep 8.0 02:18:27 14° NW 02:18:27 14° NW 02:19:34 10° NNW visible
